Pontiac, IL

2:36 PM CDT on April 27, 2017 (GMT -0500)
Pontiac Municipal

Weather History for KPNT - November, 2011

Change the Weather History Date:

Friday, November 18, 2011

  Actual Average Record
Temperature  
Mean Temperature 40 °F -  
Max Temperature 53 °F 51 °F 74 °F (1930)
Min Temperature 28 °F 32 °F 9 °F (1959)
Degree Days  
Heating Degree Days 24    
Moisture  
Dew Point 20 °F    
Average Humidity 46    
Maximum Humidity 69    
Minimum Humidity 26    
Precipitation  
Precipitation 0.00 in - - ()
Sea Level Pressure  
Sea Level Pressure 30.08 in    
Wind  
Wind Speed 17 mph (South)    
Max Wind Speed 31 mph    
Max Gust Speed 41 mph    
Visibility 10 miles    
Events      
Averages and records for this station are not official NWS values.
T = Trace of Precipitation, MM = Missing Value Source: NWS Daily Summary

Daily Weather History Graph

Daily Weather History Graph

Search for Another Location

Airport or City:

Trip Planner

Search our weather history database for the weather conditions in past years. The results will help you decide how hot, cold, wet, or windy it might be!

Date:

Astronomy

Nov. 18, 2011 Rise Set
Actual Time 6:45 AM CST 4:33 PM CST
Civil Twilight 6:15 AM CST 5:03 PM CST
Nautical Twilight 5:42 AM CST 5:36 PM CST
Astronomical Twilight 5:09 AM CST 6:09 PM CST
Moon No Moon Rise 12:23 PM CST (11/18)
Length of Visible Light 10h 48m
Length of Day
9h 48m
Waning Gibbous, 49% of the Moon is Illuminated
Nov 18
Waning Gibbous
Nov 25
New
Dec 2
First Quarter
Dec 10
Full
Dec 17
Last Quarter

Hourly Weather History & Observations

Time (CST) Temp. Windchill Dew Point Humidity Pressure Visibility Wind Dir Wind Speed Gust Speed Precip Events Conditions
12:15 AM 32.0 °F 23.6 °F 19.4 °F 60% 30.21 in 10.0 mi South 10.4 mph - N/A   Clear
12:35 AM 32.0 °F 23.0 °F 19.4 °F 60% 30.20 in 10.0 mi South 11.5 mph - N/A   Clear
12:55 AM 32.0 °F 23.6 °F 19.4 °F 60% 30.20 in 10.0 mi South 10.4 mph - N/A   Clear
1:15 AM 30.2 °F 21.3 °F 19.4 °F 64% 30.20 in 10.0 mi South 10.4 mph - N/A   Clear
1:35 AM 30.2 °F 21.3 °F 19.4 °F 64% 30.20 in 10.0 mi South 10.4 mph - N/A   Clear
1:55 AM 30.2 °F 21.3 °F 19.4 °F 64% 30.21 in 10.0 mi South 10.4 mph - N/A   Clear
2:15 AM 28.4 °F 19.1 °F 19.4 °F 69% 30.21 in 10.0 mi South 10.4 mph - N/A   Clear
2:35 AM 30.2 °F 21.3 °F 19.4 °F 64% 30.21 in 10.0 mi South 10.4 mph - N/A   Clear
2:55 AM 28.4 °F 19.1 °F 19.4 °F 69% 30.21 in 10.0 mi South 10.4 mph - N/A   Clear
3:15 AM 30.2 °F 20.8 °F 19.4 °F 64% 30.21 in 10.0 mi South 11.5 mph - N/A   Clear
3:35 AM 30.2 °F 21.3 °F 19.4 °F 64% 30.20 in 10.0 mi SSE 10.4 mph - N/A   Clear
3:55 AM 30.2 °F 20.8 °F 19.4 °F 64% 30.19 in 10.0 mi South 11.5 mph - N/A   Clear
4:15 AM 30.2 °F 20.8 °F 19.4 °F 64% 30.19 in 10.0 mi South 11.5 mph - N/A   Clear
4:35 AM 30.2 °F 20.2 °F 19.4 °F 64% 30.18 in 10.0 mi South 12.7 mph - N/A   Clear
4:55 AM 32.0 °F 22.1 °F 19.4 °F 60% 30.18 in 10.0 mi South 13.8 mph - N/A   Clear
5:35 AM 32.0 °F 22.1 °F 19.4 °F 60% 30.17 in 10.0 mi South 13.8 mph - N/A   Clear
5:55 AM 32.0 °F 20.5 °F 19.4 °F 60% 30.17 in 10.0 mi South 18.4 mph 21.9 mph N/A   Clear
6:15 AM 33.8 °F 22.5 °F 21.2 °F 60% 30.17 in 10.0 mi South 19.6 mph 23.0 mph N/A   Clear
6:35 AM 33.8 °F 23.2 °F 21.2 °F 60% 30.17 in 10.0 mi South 17.3 mph 25.3 mph N/A   Clear
6:55 AM 33.8 °F 21.9 °F 21.2 °F 60% 30.16 in 10.0 mi South 21.9 mph 26.5 mph N/A   Clear
7:15 AM 33.8 °F 22.8 °F 21.2 °F 60% 30.17 in 10.0 mi South 18.4 mph - N/A   Clear
7:35 AM 35.6 °F 24.8 °F 21.2 °F 56% 30.17 in 10.0 mi South 19.6 mph - N/A   Clear
7:55 AM 35.6 °F 24.5 °F 21.2 °F 56% 30.16 in 10.0 mi South 20.7 mph - N/A   Clear
8:15 AM 35.6 °F 24.8 °F 21.2 °F 56% 30.16 in 10.0 mi South 19.6 mph - N/A   Clear
8:35 AM 37.4 °F 27.5 °F 23.0 °F 56% 30.15 in 10.0 mi South 18.4 mph 27.6 mph N/A   Clear
8:55 AM 39.2 °F 27.6 °F 21.2 °F 49% 30.15 in 10.0 mi South 28.8 mph 32.2 mph N/A   Clear
9:15 AM 42.8 °F 33.5 °F 21.2 °F 42% 30.14 in 10.0 mi South 23.0 mph 32.2 mph N/A   Clear
9:35 AM 42.8 °F 33.5 °F 21.2 °F 42% 30.14 in 10.0 mi South 23.0 mph 28.8 mph N/A   Clear
9:55 AM 44.6 °F 35.7 °F 21.2 °F 39% 30.13 in 10.0 mi South 24.2 mph 34.5 mph N/A   Clear
10:15 AM 46.4 °F 37.4 °F 21.2 °F 37% 30.12 in 10.0 mi South 28.8 mph 33.4 mph N/A   Clear
10:35 AM 46.4 °F 37.9 °F 19.4 °F 34% 30.11 in 10.0 mi South 25.3 mph 36.8 mph N/A   Clear
10:55 AM 46.4 °F 37.4 °F 19.4 °F 34% 30.09 in 10.0 mi South 28.8 mph 38.0 mph N/A   Clear
11:15 AM 48.2 °F - 19.4 °F 32% 30.07 in 10.0 mi South 27.6 mph 35.7 mph N/A   Clear
11:35 AM 48.2 °F - 19.4 °F 32% 30.06 in 10.0 mi SSW 25.3 mph 35.7 mph N/A   Clear
11:55 AM 50.0 °F - 19.4 °F 30% 30.04 in 10.0 mi South 28.8 mph 39.1 mph N/A   Clear
12:15 PM 50.0 °F - 19.4 °F 30% 30.02 in 10.0 mi South 31.1 mph 38.0 mph N/A   Clear
12:35 PM 51.8 °F - 19.4 °F 28% 30.00 in 10.0 mi South 28.8 mph 38.0 mph N/A   Clear
12:55 PM 51.8 °F - 19.4 °F 28% 29.98 in 10.0 mi South 29.9 mph 38.0 mph N/A   Clear
1:35 PM 53.6 °F - 19.4 °F 26% 29.95 in 10.0 mi South 31.1 mph 34.5 mph N/A   Clear
1:55 PM 53.6 °F - 19.4 °F 26% 29.94 in 10.0 mi South 26.5 mph 33.4 mph N/A   Clear
2:15 PM 53.6 °F - 19.4 °F 26% 29.93 in 10.0 mi South 28.8 mph 40.3 mph N/A   Clear
2:35 PM 53.6 °F - 19.4 °F 26% 29.92 in 10.0 mi South 31.1 mph 38.0 mph N/A   Clear
2:55 PM 53.6 °F - 19.4 °F 26% 29.91 in 10.0 mi South 31.1 mph 41.4 mph N/A   Clear
3:15 PM 51.8 °F - 19.4 °F 28% 29.91 in 10.0 mi South 24.2 mph 36.8 mph N/A   Clear
3:35 PM 51.8 °F - 21.2 °F 30% 29.91 in 10.0 mi South 25.3 mph 36.8 mph N/A   Mostly Cloudy
3:55 PM 51.8 °F - 21.2 °F 30% 29.91 in 10.0 mi South 21.9 mph 27.6 mph N/A   Overcast
4:15 PM 51.8 °F - 21.2 °F 30% 29.92 in 10.0 mi South 20.7 mph 29.9 mph N/A   Overcast
4:35 PM 51.8 °F - 21.2 °F 30% 29.91 in 10.0 mi South 20.7 mph 32.2 mph N/A   Overcast
4:55 PM 50.0 °F - 21.2 °F 32% 29.90 in 10.0 mi South 21.9 mph 31.1 mph N/A   Mostly Cloudy
5:15 PM 48.2 °F - 21.2 °F 34% 29.90 in 10.0 mi South 21.9 mph 28.8 mph N/A   Overcast
5:35 PM 48.2 °F - 21.2 °F 34% 29.92 in 10.0 mi South 19.6 mph 25.3 mph N/A   Overcast
5:55 PM 48.2 °F - 21.2 °F 34% 29.91 in 10.0 mi South 19.6 mph 28.8 mph N/A   Mostly Cloudy
6:15 PM 46.4 °F 37.9 °F 21.2 °F 37% 29.89 in 10.0 mi South 25.3 mph 31.1 mph N/A   Scattered Clouds
6:35 PM 46.4 °F 38.3 °F 21.2 °F 37% 29.89 in 10.0 mi South 23.0 mph 35.7 mph N/A   Clear
6:55 PM 46.4 °F 38.5 °F 21.2 °F 37% 29.89 in 10.0 mi South 21.9 mph 28.8 mph N/A   Clear
7:15 PM 46.4 °F 39.0 °F 21.2 °F 37% 29.91 in 10.0 mi South 19.6 mph 29.9 mph N/A   Clear
7:35 PM 46.4 °F 39.0 °F 21.2 °F 37% 29.90 in 10.0 mi South 19.6 mph 27.6 mph N/A   Clear
7:55 PM 44.6 °F 36.9 °F 21.2 °F 39% 29.91 in 10.0 mi South 18.4 mph - N/A   Clear
8:15 PM 44.6 °F 36.6 °F 23.0 °F 43% 29.91 in 10.0 mi South 19.6 mph - N/A   Clear
8:35 PM 44.6 °F 36.9 °F 23.0 °F 43% 29.91 in 10.0 mi South 18.4 mph - N/A   Clear
8:55 PM 44.6 °F 36.9 °F 23.0 °F 43% 29.91 in 10.0 mi South 18.4 mph 25.3 mph N/A   Clear
9:15 PM 44.6 °F 36.6 °F 21.2 °F 39% 29.91 in 10.0 mi South 19.6 mph 23.0 mph N/A   Clear
9:35 PM 44.6 °F 36.6 °F 23.0 °F 43% 29.91 in 10.0 mi South 19.6 mph 28.8 mph N/A   Clear
9:55 PM 44.6 °F 36.9 °F 23.0 °F 43% 29.92 in 10.0 mi South 18.4 mph 24.2 mph N/A   Clear
10:15 PM 46.4 °F 40.1 °F 23.0 °F 40% 29.94 in 10.0 mi South 15.0 mph 23.0 mph N/A   Clear
10:35 PM 46.4 °F 40.1 °F 23.0 °F 40% 29.95 in 10.0 mi SSW 15.0 mph - N/A   Scattered Clouds
10:55 PM 46.4 °F 39.2 °F 21.2 °F 37% 29.95 in 10.0 mi SSW 18.4 mph 25.3 mph N/A   Overcast
11:15 PM 46.4 °F 39.8 °F 21.2 °F 37% 29.95 in 10.0 mi SSW 16.1 mph 25.3 mph N/A   Overcast
11:35 PM 48.2 °F - 21.2 °F 34% 29.95 in 10.0 mi SSW 20.7 mph 27.6 mph N/A   Overcast
11:55 PM 48.2 °F - 21.2 °F 34% 29.96 in 10.0 mi SSW 19.6 mph 28.8 mph N/A   Overcast